Wind_Speed
18 16 14 12 11 11 11 11 11 11 11 11 12 13 14 14 14 14 13 12 11 11 11 11 11 11 12 13 15 16 17 18 18 18 18 17 16 14 13 12 11 10 9 9 10 10 10 10 9 8 7 6 6 6 7 7 7 7 8 7 6 6 5 5 4 4 4 5 5 5 6 6 6 6 6 7 8 8 8 8 8 8 7 6 6
16 14 12 11 10 10 10 11 11 11 10 11 11 12 13 14 14 13 12 11 10 10 10 10 11 11 12 13 14 16 17 18 18 18 18 18 17 15 14 13 12 10 10 10 10 10 10 9 8 7 6 6 6 6 6 7 7 7 7 6 6 6 5 5 4 4 4 4 5 5 5 5 6 6 7 8 8 8 8 8 8 8 7 7 7
14 12 11 10 9 8 9 10 10 10 10 10 11 12 13 14 14 13 12 11 10 10 9 10 10 11 11 12 14 15 16 17 18 19 18 19 18 16 14 12 11 11 11 10 10 10 9 9 8 7 6 6 6 6 6 7 7 7 6 6 5 5 5 5 4 4 4 4 4 4 5 5 6 6 7 7 7 7 7 7 7 7 7 7 6
12 10 10 9 8 8 8 9 9 9 10 11 11 12 13 14 14 13 12 11 10 10 9 9 10 11 12 12 13 15 16 16 18 19 19 19 19 16 14 12 11 11 11 10 10 10 9 8 7 6 6 5 6 6 6 6 7 7 6 6 5 5 5 5 4 4 4 4 4 4 5 5 5 6 6 6 6 6 6 6 6 6 6 6 6
10 9 9 8 7 7 8 8 8 9 10 11 12 12 13 14 14 13 12 11 10 10 9 9 10 11 11 12 13 15 16 16 17 18 19 18 19 17 15 13 12 11 11 10 10 10 9 8 7 5 5 5 5 5 5 6 7 7 7 6 5 5 5 4 4 4 4 4 5 4 5 5 5 5 5 5 5 5 5 5 5 5 5 5 6
9 8 7 6 6 6 7 7 8 8 10 11 12 13 14 14 13 12 12 11 10 10 9 9 9 10 11 12 13 15 16 16 17 18 19 18 18 18 16 13 12 12 11 11 10 10 9 8 7 5 5 4 5 5 6 6 7 7 7 7 6 5 4 4 4 4 5 5 5 6 6 5 5 5 4 5 5 5 5 5 5 5 5 6 6
8 7 6 6 6 6 6 6 7 9 10 11 12 13 14 14 13 12 11 11 11 10 10 9 10 11 11 12 13 15 17 16 16 16 18 18 18 18 17 15 13 13 12 11 10 10 10 9 7 6 5 4 5 5 6 7 8 8 8 8 7 6 6 5 5 5 5 6 6 6 6 6 5 5 4 4 5 5 5 5 5 5 5 6 6
7 6 6 6 6 6 5 6 7 9 10 11 12 13 14 13 12 11 11 11 11 11 10 10 10 11 12 12 13 15 17 18 17 16 17 18 18 17 17 16 13 13 13 12 11 10 10 10 8 6 5 4 5 6 7 7 7 8 8 8 8 7 7 6 5 5 6 6 6 7 6 6 6 5 5 5 5 5 5 5 5 4 5 5 5
6 6 6 5 5 5 5 6 7 8 9 10 12 13 13 13 12 12 12 12 12 11 11 11 11 12 13 13 13 14 16 18 18 17 17 18 17 17 17 17 15 13 13 13 12 11 10 9 8 6 5 4 5 5 6 6 7 8 8 8 8 8 7 6 6 6 6 6 6 6 6 6 6 6 6 6 6 6 5 5 5 4 4 5 5
6 6 4 4 5 5 6 6 7 8 9 10 11 13 13 12 12 12 12 12 12 12 11 11 12 12 13 13 13 13 15 18 19 18 17 17 17 16 16 17 15 13 13 13 13 12 10 9 8 7 6 5 5 5 6 6 7 8 8 8 8 8 7 7 7 7 7 7 6 6 6 6 6 6 6 6 6 6 6 6 5 5 5 5 5
6 5 4 4 5 5 6 6 7 8 8 9 11 12 12 12 12 12 13 13 12 12 12 12 13 13 13 14 14 14 14 15 18 19 17 16 16 16 16 16 16 14 13 13 14 13 11 9 9 8 6 5 5 5 5 6 6 7 7 8 8 7 7 7 7 7 7 7 6 6 6 6 6 6 7 7 7 7 6 6 5 5 5 5 5
7 5 4 4 5 5 5 5 6 7 8 9 11 12 12 12 12 12 12 13 13 13 13 13 14 14 14 14 15 16 16 15 16 19 18 16 16 16 15 15 15 14 13 12 13 13 12 10 9 8 6 5 4 4 4 5 5 6 7 8 8 7 6 6 7 7 6 6 6 6 6 6 6 6 7 7 7 7 7 6 6 6 5 5 5
6 5 4 4 5 5 4 5 6 7 8 10 11 12 12 11 11 11 12 12 13 13 13 14 14 15 15 14 15 16 18 16 14 17 18 17 16 15 15 15 14 13 12 12 12 13 13 12 10 8 6 5 4 4 5 4 5 6 7 8 8 8 7 7 7 7 7 7 7 7 7 6 6 6 6 6 7 7 7 7 6 6 6 5 5
6 4 4 4 4 4 4 5 6 7 9 10 11 11 11 11 11 11 11 12 12 13 13 14 15 16 17 15 15 16 19 18 14 16 18 18 16 15 15 15 14 12 12 11 11 12 13 13 11 9 8 6 5 5 5 5 5 6 7 8 8 8 8 8 8 7 7 8 8 7 7 7 6 6 6 6 7 8 8 7 7 6 6 5 5
5 4 4 4 4 4 4 5 5 7 9 11 12 11 10 10 11 11 11 11 13 13 14 15 15 16 17 17 16 15 18 17 13 16 18 19 18 16 15 15 14 13 11 11 11 12 13 13 12 11 9 7 6 5 6 5 5 6 7 8 8 9 9 8 8 8 9 9 9 8 8 7 7 7 7 7 7 7 8 8 7 7 6 6 5
5 4 4 4 4 4 4 5 6 8 10 12 12 12 11 10 11 11 11 12 13 14 14 15 15 16 17 17 17 16 15 14 15 17 18 20 20 17 16 15 14 13 12 10 10 11 12 13 12 11 10 9 8 7 7 7 6 7 7 8 9 9 9 9 9 9 9 10 10 9 9 8 7 7 7 7 6 6 7 7 8 7 7 7 6
6 5 5 5 5 5 5 6 7 9 11 12 13 13 12 12 12 12 12 12 13 14 14 15 15 17 17 18 19 17 14 13 16 18 18 20 21 19 17 16 16 16 15 11 10 11 11 12 12 12 11 10 9 8 8 8 8 8 8 9 9 10 10 10 10 10 10 11 10 10 9 8 7 7 7 7 7 6 6 6 7 7 7 7 7
6 6 6 6 6 5 6 7 8 10 12 13 13 14 14 13 13 13 13 13 13 13 14 14 15 17 18 19 18 16 14 13 15 17 18 20 22 21 18 17 17 18 17 13 11 11 11 11 12 12 11 10 9 9 9 9 8 9 9 10 10 11 11 11 11 12 12 12 11 10 9 8 8 7 8 8 8 7 6 6 6 6 7 7 7
7 7 7 7 6 6 6 7 8 10 12 14 14 15 15 15 14 14 14 14 14 14 14 14 15 17 17 19 18 17 18 18 17 17 18 21 23 22 20 18 18 18 17 15 14 12 12 12 12 12 12 10 10 9 10 9 9 9 10 10 11 11 12 12 13 14 14 14 12 10 9 9 8 8 8 9 9 8 7 7 6 6 6 7 7
8 8 8 7 7 7 7 8 9 11 13 14 15 15 16 15 15 14 14 14 14 15 14 14 16 17 18 19 20 22 22 22 20 18 18 21 23 22 20 19 18 18 18 18 18 15 13 13 12 12 12 11 10 10 10 10 9 9 10 10 11 12 12 13 13 14 15 14 13 11 10 10 9 9 9 9 9 9 8 8 7 7 7 7 7
9 9 9 8 8 8 8 9 11 12 13 14 15 15 16 15 14 14 14 15 15 15 15 15 17 19 20 21 22 23 24 23 22 20 19 20 22 22 21 21 20 20 20 20 21 17 14 13 13 13 13 12 11 10 10 10 10 10 10 10 11 11 12 13 14 14 14 14 13 13 12 11 11 10 10 10 10 10 9 9 8 8 7 7 7
10 9 9 9 9 9 9 11 12 12 13 14 15 15 15 15 15 15 16 16 17 17 17 17 18 20 21 23 23 24 25 24 23 23 20 19 21 23 23 23 22 22 22 22 22 18 15 14 14 14 13 13 11 11 11 11 10 10 10 10 11 11 12 13 13 13 13 13 12 12 12 12 12 12 11 11 11 10 9 9 9 8 8 8 8
11 10 10 10 10 10 11 11 12 13 14 15 15 16 16 16 17 18 18 19 19 19 19 19 20 21 23 24 25 25 25 24 24 25 23 19 20 23 24 24 23 22 22 22 21 18 16 15 15 15 15 14 13 11 11 11 11 11 11 11 11 11 12 12 13 13 13 12 12 12 12 12 12 12 12 12 12 11 10 10 9 9 8 8 8
12 11 11 11 11 11 12 12 13 14 15 15 16 17 18 19 20 21 21 22 22 21 20 20 21 22 23 24 25 25 24 24 24 26 25 21 19 22 24 24 23 23 22 22 21 18 16 16 16 16 16 16 14 12 12 11 11 11 12 12 12 12 12 12 13 13 13 13 12 12 12 12 12 12 12 12 12 12 11 10 10 9 9 8 8
12 12 12 12 12 12 13 14 14 15 16 17 18 19 20 21 22 23 24 24 23 22 21 21 22 23 24 25 25 24 23 23 24 25 26 23 21 21 22 24 23 23 23 22 22 21 19 17 17 18 18 18 16 14 13 12 11 12 12 12 12 12 12 12 13 13 13 13 12 12 13 13 13 14 14 13 13 13 12 11 11 10 9 8 8
13 13 13 13 13 14 15 16 16 17 17 18 20 21 22 23 24 25 26 25 23 22 22 22 23 23 24 25 25 24 23 23 24 25 25 25 24 22 23 24 23 23 22 22 22 24 21 19 19 19 19 18 18 16 14 13 12 12 13 13 12 12 12 13 13 14 13 13 13 13 13 14 14 15 15 14 13 13 13 12 12 11 10 9 8
15 15 15 15 15 16 17 17 18 18 19 20 21 22 23 24 25 26 26 26 24 24 24 24 24 23 24 26 25 24 23 23 25 25 25 25 25 24 23 24 24 23 21 21 22 25 21 19 20 19 19 19 19 17 15 14 14 13 14 13 12 13 13 13 14 14 14 13 13 13 13 14 14 14 15 14 13 13 13 13 12 11 10 9 8
16 16 16 17 18 19 19 19 19 20 20 21 22 22 23 25 25 26 27 27 25 25 25 25 24 24 25 26 26 25 24 24 25 25 24 24 24 23 23 23 25 23 22 21 22 24 21 20 21 20 19 19 19 18 16 15 14 14 15 14 13 13 14 14 14 14 14 13 13 13 13 14 14 14 14 14 13 12 12 12 11 11 10 9 7
17 17 18 19 20 20 20 20 20 20 21 21 22 23 24 25 25 26 27 27 26 25 26 26 26 25 26 26 26 25 25 25 26 25 24 23 23 23 22 22 24 23 22 21 22 23 21 21 21 20 20 19 19 19 17 16 16 15 15 15 14 14 14 14 14 15 14 14 13 13 13 13 13 13 13 13 13 12 11 10 10 10 9 8 7
18 19 20 21 21 21 21 20 20 20 21 21 22 23 24 25 25 26 26 27 26 26 26 27 26 26 27 27 26 26 26 26 26 25 23 23 23 24 23 22 22 21 21 21 21 21 20 23 22 20 20 20 19 19 18 18 17 16 16 15 14 14 14 14 14 15 15 14 13 13 13 13 13 13 13 12 12 12 11 10 9 9 9 8 7
19 20 20 21 21 21 21 20 20 20 21 21 22 23 24 25 25 25 26 26 26 26 27 27 27 27 28 28 27 27 26 26 25 24 23 23 24 25 24 23 21 20 20 21 21 19 19 23 23 20 20 21 21 20 19 19 17 17 17 15 15 15 15 15 14 15 15 14 13 13 13 12 12 12 12 11 11 11 11 10 9 8 8 7 7
19 20 20 20 21 21 21 21 21 20 21 22 22 23 24 25 25 25 26 26 26 27 27 27 27 28 29 29 28 27 26 25 23 23 24 24 25 26 26 24 22 20 21 21 22 21 19 22 23 21 21 22 22 21 20 19 18 17 17 16 16 15 15 15 15 15 15 14 13 13 13 12 12 12 11 10 10 10 10 10 8 8 7 7 7
19 19 19 20 20 21 21 21 21 21 21 21 22 23 24 25 26 26 26 26 26 27 28 28 27 28 28 29 29 27 25 24 23 23 24 24 25 26 25 24 22 20 21 21 23 23 21 23 24 22 22 23 23 22 21 19 19 18 17 17 16 15 16 15 15 15 15 14 14 13 12 12 12 12 11 10 9 9 9 9 8 7 7 7 6
19 19 19 20 20 20 20 20 20 20 21 21 22 23 25 25 26 26 26 26 27 27 28 28 27 27 27 28 28 27 25 25 26 25 24 25 26 25 24 24 23 21 21 22 25 25 22 24 25 24 23 24 24 23 21 20 19 18 18 18 17 16 16 16 16 16 15 15 14 13 12 12 12 12 11 9 8 8 9 9 8 7 6 6 6
19 19 19 20 20 20 20 20 20 20 20 21 22 23 25 26 26 26 26 27 28 28 28 28 28 28 27 27 27 26 25 25 26 26 26 26 26 25 25 26 25 23 22 23 26 25 22 25 26 25 24 24 24 23 22 21 20 19 18 18 17 17 17 17 17 16 15 15 15 14 13 13 13 12 11 10 9 9 8 8 7 7 6 6 6
20 20 20 19 19 20 21 20 20 20 21 22 22 23 24 25 25 25 26 27 28 28 28 28 29 28 26 26 26 25 24 24 26 26 27 28 28 27 27 27 26 25 24 23 27 26 24 26 26 25 25 25 24 23 22 21 20 19 19 18 18 17 18 18 18 17 16 16 16 15 14 13 13 12 11 10 9 9 8 8 7 6 6 6 6
21 20 20 20 20 21 21 20 20 21 22 22 23 23 24 24 25 25 26 27 27 27 27 28 28 27 25 24 24 23 24 25 26 26 27 29 30 29 29 28 28 27 25 24 27 27 26 27 26 26 26 25 24 23 22 21 20 20 19 18 18 18 19 19 19 18 18 17 16 16 15 14 13 13 12 10 9 9 9 8 7 7 7 7 7
20 20 20 21 21 21 21 21 21 21 22 22 23 23 24 24 25 26 26 26 26 26 26 26 27 27 25 23 22 22 23 25 26 26 27 30 30 29 28 28 29 28 26 24 26 27 27 26 26 26 27 25 24 23 22 21 20 20 19 18 18 19 19 19 19 19 18 18 17 16 15 14 13 13 12 11 10 9 9 9 8 8 8 8 8
20 21 21 21 22 21 21 21 21 22 22 23 23 23 24 25 25 26 26 26 25 24 24 24 26 28 26 25 23 22 23 25 26 27 27 28 28 29 28 27 27 28 28 26 26 27 27 26 26 26 26 25 24 24 23 21 20 20 19 19 19 19 19 20 20 19 19 18 17 17 15 14 14 14 12 11 10 10 10 9 9 9 9 9 9
20 20 21 21 21 21 22 22 23 23 24 24 24 24 24 25 25 26 26 26 26 25 24 25 26 26 25 24 23 23 23 25 27 27 26 25 25 27 29 28 27 27 29 28 27 28 27 26 26 26 26 24 24 25 23 21 21 20 20 19 19 19 20 20 19 19 19 18 17 17 16 15 15 15 13 12 10 10 10 10 10 11 10 10 10
20 20 20 20 21 21 22 23 23 23 24 24 24 24 24 25 25 26 26 27 27 27 27 26 26 26 26 25 23 23 24 26 28 28 27 25 24 24 26 28 28 27 29 28 27 28 27 26 25 25 24 22 24 25 23 21 21 20 20 19 19 19 20 20 19 19 19 18 18 17 16 16 16 15 14 12 11 10 11 11 11 12 12 11 10
19 19 19 19 20 21 21 22 22 22 23 23 23 23 24 25 26 27 28 28 29 30 29 27 27 28 28 28 26 25 25 26 27 27 27 26 24 22 21 23 24 25 27 27 28 28 27 26 25 23 22 22 23 23 22 21 21 21 21 20 19 19 20 20 20 20 19 18 18 18 17 17 16 16 15 13 12 11 11 11 11 12 13 12 11
19 19 19 19 20 20 20 21 21 21 22 22 22 23 23 24 26 28 29 30 30 31 30 29 29 28 28 28 28 27 26 26 26 25 26 26 23 21 20 20 19 21 24 26 27 28 27 25 23 22 22 23 23 23 21 21 22 23 23 21 21 20 21 22 21 21 19 18 18 18 18 17 17 17 16 14 13 11 11 12 12 13 13 13 13
20 19 19 19 19 20 20 21 21 21 21 22 22 23 23 24 26 28 30 31 30 30 30 30 30 30 28 26 26 27 26 26 26 24 23 24 22 19 19 19 18 19 21 23 24 25 26 25 22 22 22 24 24 22 21 20 21 23 23 23 22 21 21 22 21 20 20 19 18 18 18 17 18 18 17 16 15 13 14 14 14 15 14 14 14
22 20 19 19 19 19 19 19 20 20 21 21 22 22 23 24 26 28 30 31 31 30 30 31 30 29 28 26 24 25 25 25 25 24 22 22 22 19 18 19 20 20 20 21 22 23 24 24 23 23 23 24 24 22 21 21 21 22 24 23 22 21 20 21 20 19 19 19 18 18 17 17 19 18 17 16 16 15 15 15 15 16 15 15 14
21 21 20 20 20 19 19 19 19 19 19 20 20 21 22 23 25 27 29 31 31 31 31 31 31 30 28 25 23 23 24 25 25 24 22 21 22 20 19 19 20 21 21 22 23 23 23 23 23 24 24 24 23 22 21 21 22 23 23 22 21 21 21 20 19 18 19 19 18 18 17 18 20 19 17 17 17 17 16 16 16 16 16 15 15
21 21 21 20 19 19 20 21 21 20 19 19 20 20 22 23 24 25 27 29 30 31 31 31 31 31 29 27 24 23 24 24 25 25 23 22 22 21 19 18 19 22 22 22 23 23 24 24 24 24 24 23 23 23 24 23 23 23 23 23 23 23 21 21 20 20 21 19 18 18 18 19 20 19 18 18 18 18 17 17 17 17 17 16 16
21 21 20 20 19 19 20 21 22 21 21 20 21 21 22 23 24 25 26 27 28 29 30 30 30 30 30 28 26 25 23 23 24 25 25 23 23 22 19 16 16 20 22 23 24 24 23 23 23 24 23 23 23 23 23 22 22 22 23 23 23 23 23 23 22 22 22 20 19 19 19 19 19 19 19 19 19 18 17 17 18 18 18 17 17
20 19 19 20 20 20 21 21 22 22 21 22 22 23 24 25 26 26 26 27 27 28 28 29 30 30 29 27 26 25 24 23 23 24 25 25 24 22 20 17 15 17 21 24 26 25 23 22 23 24 23 23 23 22 20 20 20 21 21 21 21 22 22 22 22 22 21 20 20 19 19 19 19 18 18 18 18 17 17 18 18 18 18 17 17
18 18 19 20 21 21 22 22 22 23 23 23 24 25 26 27 28 28 29 28 28 27 27 27 29 29 29 27 26 25 25 25 24 24 25 26 24 23 22 19 16 15 18 23 26 26 24 23 24 23 22 23 23 22 21 21 20 20 19 19 20 20 20 19 19 20 20 20 20 20 19 19 18 18 17 17 17 17 17 18 18 18 18 18 17
17 18 19 20 20 21 21 22 23 24 25 25 25 26 27 28 29 30 30 31 30 29 28 27 27 28 28 28 26 26 27 26 26 25 25 25 25 24 23 21 18 15 16 20 26 26 24 24 23 22 23 23 24 24 24 22 20 20 20 19 18 18 18 18 18 19 19 19 20 20 20 18 17 16 16 17 17 17 18 18 19 19 18 18 17
Wind_Direction
312 310 310 317 319 317 317 318 321 325 329 330 329 329 329 327 327 329 329 331 335 342 347 353 2 8 7 6 6 4 5 7 8 11 14 13 14 10 8 9 10 11 18 28 28 26 25 23 26 26 29 40 47 47 46 45 42 38 39 38 38 38 37 37 33 30 28 31 32 32 33 31 33 35 36 37 35 28 24 20 18 17 13 12 10
306 303 308 314 314 313 315 316 318 323 326 325 325 324 324 322 322 324 325 327 331 337 343 349 356 2 0 360 1 359 359 3 5 7 13 14 14 12 9 9 8 9 15 27 29 29 29 29 32 31 29 34 43 45 43 45 42 35 33 29 29 29 28 28 24 22 22 26 30 31 34 32 34 29 24 28 29 25 23 23 20 17 15 14 12
298 299 306 308 309 312 314 314 317 322 323 321 321 321 320 317 317 319 321 323 326 331 338 345 351 353 353 354 356 354 355 359 1 3 10 14 13 11 9 8 8 8 13 24 28 29 30 33 36 36 32 29 35 38 38 37 32 27 25 25 25 25 25 24 20 16 16 20 24 26 28 28 30 28 24 24 22 20 20 23 22 18 16 16 12
291 297 300 301 306 310 312 312 316 321 321 319 319 318 316 313 313 315 317 317 320 324 330 339 342 343 346 349 351 351 352 356 358 359 6 13 12 8 8 8 10 9 10 20 27 28 29 33 37 39 38 30 31 32 34 32 26 22 22 26 27 27 26 24 19 11 10 16 20 18 22 26 26 27 24 19 17 17 18 21 22 19 17 15 14
289 293 293 297 305 308 307 307 312 318 318 318 317 314 309 307 307 309 309 308 311 315 320 330 332 335 340 345 350 352 353 354 356 357 360 9 11 6 5 6 10 11 8 14 23 27 28 33 37 42 46 38 30 29 32 32 25 23 24 27 29 30 28 26 21 11 11 15 16 11 13 20 19 19 17 15 14 13 15 18 17 17 18 16 17
285 287 293 301 306 306 303 303 308 314 316 317 315 311 305 302 302 302 301 300 301 305 311 318 324 328 334 340 349 354 355 353 353 356 356 4 11 7 3 3 7 11 8 9 16 23 26 31 38 43 52 47 31 28 29 27 23 22 23 22 20 22 25 25 21 14 14 15 12 8 8 9 8 9 8 9 8 8 10 10 9 9 13 16 17
281 290 303 308 308 305 301 302 308 312 315 316 313 308 303 299 298 297 294 293 294 297 302 310 318 322 328 334 343 352 355 353 350 354 355 360 9 7 4 2 3 9 8 7 10 15 20 25 31 37 46 46 31 26 25 20 17 17 17 13 8 7 12 15 16 14 16 16 10 6 3 359 359 358 359 2 1 1 1 1 3 4 8 12 14
288 303 308 310 308 302 297 300 304 309 314 316 310 305 302 298 294 293 291 289 291 293 296 304 313 319 324 328 334 343 350 349 347 352 355 357 4 6 4 2 1 5 6 4 7 10 13 18 21 25 34 37 26 23 20 14 11 12 12 8 3 360 3 6 9 11 16 17 9 4 359 354 352 354 355 356 355 353 353 354 357 360 3 7 11
300 305 305 307 297 291 292 296 301 308 314 314 306 300 297 293 290 288 287 287 290 291 294 302 310 317 321 324 327 334 342 345 343 347 352 354 358 2 2 2 1 2 4 2 3 6 6 11 14 15 21 26 21 17 16 9 5 6 6 4 360 356 357 358 1 5 9 11 8 3 358 352 351 354 355 353 351 347 347 348 350 354 360 4 7
299 297 301 296 283 282 288 295 303 309 313 310 303 296 291 289 289 286 286 287 288 290 294 301 307 313 317 320 323 326 333 338 338 340 345 349 352 357 358 359 359 359 1 1 358 360 360 3 8 10 11 11 8 10 12 7 2 1 0 359 355 352 353 353 356 358 1 5 5 360 354 350 352 356 356 351 348 344 342 343 345 350 354 1 1
291 293 299 289 279 279 286 295 303 310 310 305 302 299 294 291 291 288 287 288 287 289 293 300 306 310 315 319 320 319 322 329 332 333 337 343 345 350 352 353 357 356 358 359 355 353 353 355 1 6 5 359 354 359 5 1 357 356 356 354 349 346 348 351 353 354 357 1 359 354 350 349 355 359 356 350 345 342 340 340 343 346 351 356 355
286 292 297 285 276 279 287 296 305 314 312 305 304 306 303 299 296 292 290 288 287 289 294 301 306 310 314 319 319 315 310 311 323 327 329 334 337 342 345 346 351 354 354 355 352 347 347 348 351 360 1 349 339 343 348 349 350 351 351 348 342 337 340 345 348 352 355 355 355 353 349 350 357 1 356 350 344 339 338 339 342 342 345 347 346
284 294 294 277 273 279 287 298 312 319 314 309 307 308 308 305 301 295 293 290 289 290 295 301 304 308 311 316 316 313 306 297 309 324 322 325 329 333 337 337 341 350 351 348 347 344 341 341 341 347 354 344 327 327 330 335 342 346 347 343 337 331 331 334 337 343 347 347 350 351 347 348 354 356 354 349 345 339 336 336 338 336 334 335 334
284 288 279 271 273 280 293 306 317 315 310 309 308 306 305 305 299 293 291 290 290 291 295 299 303 306 307 312 312 312 307 293 301 322 317 316 320 324 329 330 330 338 346 342 338 339 336 335 335 337 343 340 323 314 317 325 334 340 342 341 336 329 327 328 330 336 341 342 344 345 342 343 347 349 349 349 346 340 334 331 330 328 324 322 321
277 274 268 270 277 287 300 309 310 305 304 306 307 306 301 297 293 287 285 285 286 288 292 296 300 303 304 308 308 312 311 296 303 319 312 309 312 314 319 322 322 324 335 337 329 329 331 332 332 331 332 332 322 305 301 309 320 325 330 336 334 328 325 326 329 336 340 341 341 338 336 337 339 342 345 347 346 341 333 328 324 322 318 315 312
268 264 268 272 280 289 298 300 300 300 302 304 304 304 297 288 284 281 278 277 280 285 289 293 296 299 301 304 306 309 308 298 301 308 304 303 304 306 310 313 315 314 319 325 321 317 322 328 328 326 324 324 320 306 293 293 302 309 316 325 328 325 322 321 324 330 335 337 337 333 330 329 331 336 340 342 341 338 332 326 322 319 316 312 310
258 255 260 268 274 279 287 291 296 301 304 303 300 298 293 283 278 277 275 274 278 282 286 289 292 294 297 301 304 303 300 297 300 302 301 300 299 302 305 305 308 310 310 312 311 308 311 321 323 321 319 316 315 308 295 289 292 299 306 313 320 320 315 311 311 316 322 328 330 329 326 322 324 332 337 337 334 332 329 324 321 319 315 312 309
249 249 252 261 267 269 277 287 296 302 303 301 297 293 290 285 280 277 276 275 276 279 281 284 285 288 293 297 300 300 299 297 298 302 302 299 299 302 302 300 302 306 306 303 300 300 300 307 314 315 312 311 310 306 298 291 289 292 298 304 310 313 309 305 303 306 310 317 322 323 322 317 315 325 333 334 328 325 325 321 318 316 314 310 308
251 252 254 258 261 265 273 286 294 297 299 298 293 289 287 286 284 282 280 277 276 277 281 284 285 286 290 292 292 294 296 293 291 295 295 295 296 298 300 298 298 297 298 296 292 291 291 294 303 307 306 306 304 301 296 292 288 286 290 295 301 306 306 303 301 302 305 309 314 316 316 314 310 314 322 326 325 321 319 317 315 311 308 306 306
257 260 263 262 260 266 277 286 291 294 295 293 290 287 287 288 287 285 282 279 278 279 281 282 282 282 282 284 287 289 290 289 288 288 286 289 290 291 294 295 295 290 290 294 291 283 281 286 292 299 301 300 298 295 291 288 286 284 284 288 293 300 301 301 300 300 302 304 309 311 308 308 308 308 312 316 318 319 317 314 313 310 303 300 301
258 263 267 269 269 274 282 287 290 293 291 288 286 286 288 288 287 283 279 277 276 277 277 274 274 276 278 280 283 284 285 286 287 286 283 283 284 286 289 290 292 289 288 292 293 283 272 278 284 290 295 294 293 290 288 285 283 282 282 284 288 294 297 298 299 298 297 298 304 308 305 303 303 304 308 311 312 316 318 315 312 310 305 298 296
252 258 263 269 273 277 280 284 286 288 286 283 283 284 285 283 280 276 273 272 270 270 270 269 269 273 277 280 282 283 285 287 289 287 284 281 281 284 286 287 289 289 289 289 292 285 269 271 277 283 288 288 287 286 285 282 281 282 281 282 284 289 294 298 300 298 295 295 300 304 304 302 301 301 303 307 308 311 316 316 313 310 306 301 298
248 252 258 264 269 273 276 279 280 280 279 279 280 279 278 275 272 271 269 268 267 266 266 267 270 274 279 282 284 286 288 291 291 289 286 282 278 279 281 283 284 286 289 287 290 284 265 266 273 277 282 281 280 279 279 279 278 279 280 280 282 286 291 296 298 297 296 296 299 302 305 306 305 304 301 301 304 307 311 312 312 309 306 304 301
245 251 255 259 264 267 269 271 270 272 273 275 276 274 273 272 270 270 269 267 266 266 267 270 273 277 280 283 284 287 290 291 290 287 286 284 278 277 277 279 280 282 285 285 287 281 262 262 271 274 277 277 275 274 273 274 273 274 276 277 279 283 288 292 294 295 296 297 300 303 307 311 313 310 304 298 298 302 306 308 307 306 305 304 302
244 249 253 256 259 260 262 265 266 268 271 272 271 271 271 271 270 270 269 268 268 269 270 273 276 278 280 281 283 286 288 287 285 284 285 285 281 277 274 274 276 276 279 280 281 279 264 257 264 270 274 275 273 272 272 273 271 269 271 274 278 281 285 290 292 292 294 297 300 302 305 310 313 312 307 300 295 295 300 304 303 301 301 301 299
244 247 251 253 255 258 262 265 268 269 269 269 269 270 271 271 272 273 272 271 270 270 272 274 276 278 279 280 282 284 285 283 281 281 283 284 283 279 274 271 270 270 272 274 275 275 266 251 254 263 269 273 272 270 271 274 273 270 269 271 275 277 281 286 288 288 291 296 300 301 302 304 308 310 308 304 297 294 295 300 301 298 297 296 296
247 248 250 252 256 262 266 268 269 270 270 271 273 274 274 274 275 274 273 271 270 272 274 275 276 278 280 281 283 283 282 281 279 280 281 283 284 282 277 271 268 266 265 267 268 271 264 245 246 256 264 269 269 267 268 272 273 270 269 269 271 273 278 282 284 286 288 293 300 302 301 303 307 309 310 308 303 297 294 296 297 296 294 294 296
252 252 255 259 263 267 269 269 270 271 273 275 277 277 276 274 274 274 273 272 273 274 276 277 278 280 281 281 283 284 282 281 280 279 280 281 283 282 278 271 266 262 259 258 261 266 257 237 240 250 259 265 265 265 265 268 271 269 269 268 269 271 275 280 283 286 288 293 298 301 301 304 307 310 310 311 308 303 297 295 294 294 294 295 298
256 258 262 266 269 270 270 271 272 273 275 277 277 276 274 273 273 274 275 275 276 277 277 278 279 279 279 279 281 283 282 280 279 278 277 277 277 277 277 272 264 258 254 252 253 259 248 231 236 245 254 261 260 261 261 263 266 267 268 267 267 269 272 278 282 285 288 293 296 297 298 301 306 311 312 312 311 307 303 298 294 293 293 295 298
260 264 266 268 270 270 270 271 273 275 275 275 275 272 271 272 273 275 275 276 277 277 277 277 278 278 278 279 280 280 279 278 277 276 273 272 273 274 274 272 265 254 248 245 245 252 243 230 234 241 250 257 257 257 257 259 263 265 266 266 267 268 271 276 278 282 286 291 294 293 294 297 304 311 313 314 312 310 306 301 297 293 292 294 297
263 265 266 267 268 268 270 272 274 275 275 274 274 271 271 272 273 274 275 276 277 278 278 278 279 278 279 279 280 280 278 277 277 275 272 271 272 272 272 270 264 250 241 239 237 239 234 228 232 238 247 253 254 254 255 257 261 264 266 265 265 266 270 274 276 280 283 288 291 290 291 293 301 310 312 312 311 309 308 303 299 294 293 296 300
262 263 266 268 270 271 274 276 277 277 276 276 274 272 272 272 273 274 275 276 277 278 279 279 279 279 281 281 281 281 281 280 278 275 272 272 273 273 271 267 261 247 238 236 231 228 225 227 230 235 244 250 252 252 253 256 259 262 264 264 263 263 267 272 275 278 281 286 290 289 289 291 298 307 308 308 307 307 307 304 300 299 298 301 305
261 265 268 271 274 276 279 279 279 278 276 275 273 272 271 271 272 273 274 275 276 276 276 277 278 280 283 284 283 283 284 281 275 271 270 273 276 275 272 265 259 247 238 235 228 223 221 225 229 232 240 247 249 249 251 254 257 259 261 261 261 261 264 269 274 276 279 284 287 288 289 292 296 302 304 305 307 306 304 301 299 301 304 306 310
262 266 269 272 275 277 278 278 277 275 274 273 272 271 270 271 272 273 274 275 275 274 274 276 278 281 285 286 284 285 285 281 276 270 266 271 275 275 271 263 257 249 241 236 224 218 218 222 225 229 238 245 248 248 248 251 254 257 259 260 259 259 261 266 270 273 277 281 284 284 287 290 293 297 301 304 308 307 301 298 298 303 310 314 317
263 264 267 270 273 275 276 276 275 273 271 271 270 269 270 271 273 274 275 276 277 277 279 281 282 284 286 286 283 284 284 282 281 274 267 268 269 270 268 261 258 252 246 237 221 213 214 219 223 229 236 244 247 247 246 249 252 255 257 258 259 257 258 261 266 270 274 278 280 281 283 286 289 293 296 298 303 305 300 297 300 308 315 318 321
260 262 266 270 274 276 277 276 275 273 270 269 269 269 270 272 274 275 276 278 281 284 286 287 288 287 285 284 282 282 281 281 281 277 271 269 267 268 265 257 255 252 249 239 220 210 211 216 222 229 236 242 246 246 246 247 250 253 255 256 257 256 256 259 263 268 272 275 277 277 279 281 284 288 290 292 296 300 299 300 303 308 311 312 312
260 264 268 272 274 275 276 276 275 274 273 273 272 272 272 273 274 275 277 279 282 285 285 286 289 287 282 282 283 282 281 279 279 277 274 271 267 267 263 255 249 246 245 235 219 213 213 216 221 228 236 242 245 246 245 245 248 251 253 254 255 255 255 258 261 266 269 271 273 274 275 276 279 282 284 287 291 294 297 298 301 300 299 301 303
263 267 270 272 274 275 276 276 276 276 276 276 275 275 275 274 274 274 276 279 282 285 284 284 285 284 280 281 283 282 280 279 280 280 278 276 269 262 261 259 253 245 239 229 220 219 218 217 221 228 235 241 244 245 243 242 244 247 250 251 251 253 254 256 260 264 266 267 269 271 271 273 275 277 280 283 286 290 293 296 296 292 291 295 300
267 270 272 274 275 276 277 277 277 277 276 276 275 275 275 275 274 274 275 278 282 285 283 281 282 284 284 284 283 280 278 279 281 281 281 282 273 260 260 265 261 249 239 230 226 225 222 219 221 227 234 240 244 243 241 240 241 243 246 247 249 250 251 254 259 263 263 263 267 269 269 270 273 275 277 278 281 285 289 291 292 289 291 296 300
271 273 274 276 277 278 278 278 278 278 277 277 277 277 276 275 274 274 275 276 280 282 282 279 280 283 287 289 288 285 283 281 280 279 281 285 281 267 261 265 266 253 240 234 232 230 226 223 223 228 234 239 242 241 239 238 239 241 242 243 246 248 248 251 257 261 261 262 266 268 269 269 271 274 275 276 278 281 284 287 288 290 294 297 299
270 272 274 276 278 279 279 279 279 279 280 280 280 280 278 276 275 274 274 276 278 280 280 279 278 280 283 286 289 288 286 283 281 280 282 287 289 280 268 264 263 252 238 232 233 232 229 228 228 230 235 239 239 238 238 239 239 241 241 241 245 246 246 249 255 258 260 262 265 268 269 269 270 272 274 276 277 277 279 281 285 290 294 295 295
268 271 274 276 278 279 280 280 281 281 281 281 280 279 278 277 276 274 274 275 276 278 279 278 277 278 280 284 286 286 285 284 282 282 283 286 292 293 282 270 261 247 237 234 233 230 227 229 231 231 234 235 234 234 237 240 240 240 238 238 243 246 245 247 251 256 259 262 265 267 269 269 270 272 274 277 276 274 277 279 282 287 293 296 296
269 271 273 275 277 280 281 281 282 282 283 283 282 281 279 277 276 276 275 275 275 277 279 278 276 277 280 285 287 286 285 284 283 281 280 281 289 296 290 277 261 247 241 238 233 228 225 229 232 232 233 232 231 233 238 241 240 237 236 237 242 245 245 246 249 254 259 261 263 266 269 271 272 273 275 277 276 274 275 278 281 283 288 293 296
270 271 273 274 276 278 281 282 284 286 287 287 287 286 284 281 278 278 278 278 278 277 278 279 277 276 279 284 288 285 282 281 280 279 278 276 280 292 295 281 262 250 245 239 233 228 227 230 232 233 233 233 232 233 237 242 239 235 235 238 241 244 245 247 249 253 257 258 261 266 268 270 272 273 274 276 275 274 273 275 279 281 284 286 290
270 272 274 275 276 278 281 284 287 289 291 291 292 293 291 288 283 281 280 281 282 281 279 279 279 278 278 281 285 283 278 277 277 277 278 275 273 282 297 286 263 250 245 239 233 230 230 231 233 232 232 234 234 234 238 241 238 237 237 238 240 243 246 248 250 252 254 256 261 264 264 267 271 273 275 277 276 274 273 274 276 278 281 283 286
272 274 276 278 281 285 288 290 292 294 296 297 297 298 296 294 290 287 284 284 285 285 283 282 282 281 279 278 280 279 275 274 275 275 275 276 273 276 293 291 265 249 244 239 234 232 232 234 235 233 233 235 236 234 234 237 238 238 237 236 237 240 243 246 248 251 254 256 258 261 263 267 271 273 275 275 274 273 274 275 276 276 277 279 282
274 276 279 284 287 291 293 295 299 303 304 302 301 299 297 296 295 293 290 288 287 287 286 285 284 283 281 279 279 279 276 272 273 273 273 274 274 276 288 291 266 248 243 238 234 233 234 236 238 237 238 238 238 236 233 235 239 237 232 233 237 238 238 242 246 249 253 255 255 258 261 264 268 271 272 271 272 273 274 275 275 275 275 278 280
274 278 283 287 289 290 292 296 301 304 304 302 300 297 295 294 294 293 293 291 289 287 286 285 283 282 281 280 280 281 280 275 273 273 271 270 272 274 282 286 267 250 244 238 235 235 235 238 241 243 243 240 238 238 231 227 232 234 232 235 239 239 238 242 246 246 249 254 256 258 259 262 266 269 270 271 272 273 274 274 275 275 276 278 281
273 278 282 285 288 290 293 296 299 300 299 297 295 294 293 292 292 291 291 290 289 289 287 285 283 280 278 277 277 279 280 278 276 275 273 270 270 270 273 276 269 255 247 240 236 237 238 240 242 243 241 235 232 235 230 222 225 231 235 240 241 241 243 246 248 245 246 252 258 261 262 264 266 268 270 272 272 273 273 274 274 276 278 280 281
272 277 280 283 287 290 294 296 296 295 293 291 290 291 291 291 290 289 289 288 287 287 286 286 284 281 276 273 271 272 275 277 278 277 275 273 269 267 266 268 269 261 252 243 236 236 239 238 238 237 233 228 227 231 230 226 227 233 237 241 240 243 247 248 247 246 248 253 258 261 263 264 265 268 270 271 271 272 273 273 275 276 278 280 280
270 274 277 281 286 289 292 293 292 291 290 289 288 288 289 288 288 288 287 286 285 284 283 282 280 278 274 271 268 268 270 274 278 279 277 273 268 263 261 261 264 263 258 246 233 231 236 236 234 232 227 224 227 229 226 224 229 232 231 234 240 245 248 246 245 247 251 256 258 260 261 262 264 267 269 269 269 270 271 272 274 276 278 279 279
Height
5892 5891 5890 5890 5889 5888 5887 5886 5885 5884 5883 5882 5882 5881 5880 5880 5879 5878 5877 5877 5876 5876 5875 5875 5874 5873 5873 5872 5871 5870 5869 5868 5868 5867 5866 5864 5863 5862 5862 5861 5860 5859 5858 5857 5856 5856 5856 5855 5855 5855 5855 5855 5854 5854 5853 5853 5853 5852 5851 5851 5851 5850 5849 5849 5848 5848 5847 5847 5846 5846 5846 5846 5846 5846 5845 5844 5844 5845 5845 5845 5845 5845 5845 5845 5845
5891 5890 5889 5889 5888 5888 5887 5886 5885 5884 5883 5882 5881 5881 5880 5879 5878 5878 5877 5876 5876 5875 5875 5874 5874 5873 5873 5872 5871 5870 5869 5868 5868 5867 5866 5864 5863 5862 5862 5861 5861 5860 5858 5857 5856 5856 5856 5855 5855 5855 5855 5855 5855 5854 5854 5854 5853 5853 5852 5852 5851 5850 5850 5849 5849 5848 5848 5847 5847 5846 5846 5846 5845 5845 5844 5844 5844 5845 5845 5845 5845 5845 5845 5845 5845
5890 5889 5889 5888 5887 5887 5886 5885 5884 5883 5883 5882 5881 5880 5879 5878 5878 5877 5876 5876 5875 5875 5874 5874 5873 5873 5873 5872 5871 5870 5869 5868 5868 5867 5866 5865 5864 5863 5862 5862 5861 5861 5859 5858 5857 5856 5856 5856 5856 5855 5855 5855 5855 5855 5855 5854 5854 5853 5853 5852 5851 5851 5850 5850 5849 5849 5848 5848 5847 5847 5847 5846 5846 5845 5845 5845 5845 5845 5845 5845 5845 5845 5845 5845 5845
5889 5888 5888 5887 5887 5886 5885 5885 5884 5883 5882 5882 5881 5880 5879 5878 5877 5877 5876 5875 5875 5874 5874 5874 5873 5873 5873 5872 5871 5870 5869 5868 5868 5867 5867 5866 5864 5863 5863 5862 5862 5861 5860 5859 5857 5857 5856 5856 5856 5855 5855 5855 5855 5855 5855 5855 5854 5854 5853 5853 5852 5851 5851 5850 5850 5849 5849 5848 5848 5848 5847 5846 5846 5846 5846 5846 5845 5845 5845 5845 5845 5845 5845 5845 5845
5888 5888 5887 5887 5886 5885 5885 5884 5883 5883 5882 5881 5881 5880 5879 5878 5877 5876 5875 5875 5874 5874 5874 5873 5873 5873 5872 5872 5871 5870 5869 5868 5868 5867 5867 5866 5865 5864 5863 5862 5862 5861 5860 5859 5858 5857 5857 5856 5856 5855 5855 5855 5856 5856 5856 5855 5855 5854 5854 5853 5853 5852 5851 5851 5850 5850 5849 5849 5848 5848 5847 5847 5846 5846 5846 5846 5845 5845 5845 5845 5845 5845 5845 5845 5845
5887 5887 5886 5886 5885 5885 5884 5883 5883 5882 5882 5881 5880 5879 5878 5877 5876 5876 5875 5874 5874 5874 5873 5873 5873 5873 5872 5872 5871 5870 5869 5868 5868 5867 5867 5867 5866 5865 5864 5863 5862 5861 5860 5860 5859 5858 5857 5857 5856 5855 5855 5855 5855 5856 5856 5855 5855 5854 5854 5853 5853 5852 5852 5851 5850 5850 5849 5849 5848 5848 5847 5847 5846 5846 5846 5845 5845 5845 5845 5845 5845 5845 5845 5845 5845
5886 5886 5885 5885 5884 5884 5883 5883 5882 5882 5881 5880 5880 5879 5878 5877 5876 5875 5874 5874 5873 5873 5873 5873 5873 5872 5872 5871 5871 5870 5869 5868 5867 5867 5867 5867 5866 5865 5864 5863 5862 5861 5860 5860 5859 5858 5858 5857 5857 5856 5855 5855 5855 5855 5855 5855 5854 5854 5854 5853 5853 5853 5852 5851 5850 5850 5849 5849 5848 5848 5848 5847 5847 5846 5846 5845 5845 5845 5845 5844 5844 5844 5844 5844 5844
5885 5884 5884 5884 5883 5883 5883 5882 5881 5881 5880 5880 5879 5878 5877 5876 5875 5874 5874 5873 5873 5873 5872 5872 5872 5872 5872 5871 5870 5870 5869 5868 5867 5867 5867 5866 5866 5865 5864 5863 5862 5861 5860 5860 5859 5859 5858 5857 5857 5856 5855 5855 5855 5855 5855 5855 5855 5854 5854 5854 5853 5853 5852 5851 5851 5850 5850 5849 5849 5848 5848 5847 5847 5846 5846 5845 5845 5845 5845 5845 5844 5844 5844 5844 5844
5883 5883 5883 5882 5882 5882 5881 5881 5881 5880 5879 5879 5878 5877 5876 5875 5874 5873 5873 5873 5872 5872 5872 5872 5872 5872 5871 5871 5870 5870 5869 5868 5867 5866 5866 5866 5866 5865 5864 5863 5862 5861 5861 5860 5859 5859 5858 5858 5857 5856 5856 5855 5855 5855 5855 5855 5855 5854 5854 5854 5853 5853 5852 5851 5851 5850 5850 5849 5849 5848 5848 5847 5847 5846 5846 5845 5845 5845 5844 5844 5844 5844 5844 5844 5844
5882 5882 5882 5881 5881 5880 5880 5880 5880 5879 5879 5878 5877 5876 5875 5874 5873 5873 5872 5872 5872 5871 5871 5871 5871 5871 5871 5870 5870 5869 5869 5868 5867 5866 5866 5866 5865 5865 5864 5863 5862 5862 5861 5860 5859 5858 5858 5858 5857 5857 5856 5855 5855 5855 5855 5855 5855 5855 5854 5854 5853 5853 5852 5852 5851 5851 5850 5849 5849 5848 5848 5847 5847 5846 5846 5845 5845 5844 5844 5844 5844 5844 5843 5843 5843
5881 5880 5880 5880 5880 5879 5879 5879 5879 5878 5878 5877 5876 5876 5875 5874 5873 5872 5872 5872 5871 5871 5871 5871 5870 5870 5870 5870 5869 5869 5869 5868 5867 5866 5866 5866 5865 5864 5864 5863 5862 5862 5861 5860 5859 5858 5858 5858 5857 5857 5856 5856 5855 5855 5855 5855 5855 5855 5854 5854 5853 5853 5853 5852 5851 5851 5850 5850 5849 5848 5848 5847 5847 5846 5846 5846 5845 5845 5844 5844 5843 5843 5843 5843 5843
5879 5879 5879 5878 5878 5878 5878 5878 5878 5877 5876 5876 5875 5875 5874 5873 5873 5872 5871 5871 5871 5871 5870 5870 5870 5869 5870 5870 5869 5869 5868 5868 5867 5866 5865 5865 5865 5864 5863 5863 5862 5862 5861 5861 5859 5858 5858 5858 5857 5857 5856 5856 5855 5855 5855 5855 5855 5855 5854 5854 5854 5853 5853 5852 5852 5851 5850 5850 5849 5848 5848 5847 5847 5846 5846 5845 5845 5844 5844 5843 5843 5843 5842 5842 5842
5878 5877 5877 5877 5877 5877 5877 5877 5877 5876 5875 5875 5875 5874 5874 5873 5872 5872 5871 5871 5870 5870 5870 5869 5869 5868 5868 5869 5869 5868 5867 5867 5866 5866 5865 5865 5864 5864 5863 5862 5862 5862 5861 5861 5860 5858 5858 5857 5857 5857 5856 5856 5855 5855 5855 5855 5855 5855 5854 5854 5853 5853 5852 5852 5852 5851 5850 5850 5849 5848 5848 5847 5847 5846 5846 5845 5845 5844 5844 5843 5843 5842 5842 5842 5842
5876 5876 5876 5876 5876 5876 5876 5876 5875 5875 5875 5875 5874 5874 5873 5872 5872 5871 5871 5870 5870 5870 5869 5869 5868 5867 5867 5868 5868 5868 5867 5866 5866 5865 5864 5864 5864 5864 5863 5862 5862 5861 5861 5861 5860 5858 5857 5857 5857 5856 5856 5855 5855 5855 5855 5855 5855 5854 5854 5854 5853 5853 5852 5852 5852 5851 5850 5850 5849 5848 5848 5847 5847 5846 5846 5845 5844 5844 5844 5843 5843 5842 5842 5842 5841
5874 5874 5874 5875 5875 5875 5875 5875 5874 5874 5874 5874 5873 5873 5872 5871 5871 5871 5870 5869 5869 5869 5869 5868 5868 5867 5866 5866 5867 5867 5866 5866 5865 5864 5864 5863 5863 5863 5862 5861 5861 5861 5861 5861 5860 5858 5857 5857 5856 5856 5856 5855 5855 5855 5854 5854 5854 5854 5854 5853 5853 5853 5852 5852 5851 5851 5850 5849 5849 5848 5847 5847 5846 5846 5845 5845 5844 5844 5844 5843 5843 5842 5842 5842 5841
5873 5873 5873 5873 5873 5874 5874 5873 5873 5873 5873 5873 5872 5872 5871 5870 5870 5869 5869 5869 5868 5868 5868 5867 5867 5866 5865 5865 5865 5866 5866 5865 5865 5864 5863 5863 5862 5862 5862 5861 5860 5860 5861 5861 5860 5858 5857 5856 5856 5855 5855 5855 5855 5854 5854 5854 5854 5854 5853 5853 5852 5852 5852 5851 5851 5850 5850 5849 5848 5848 5847 5847 5846 5845 5845 5845 5844 5844 5843 5843 5843 5842 5842 5842 5841
5871 5871 5872 5872 5872 5872 5872 5872 5873 5873 5872 5872 5871 5870 5870 5869 5868 5868 5868 5868 5867 5867 5867 5867 5866 5866 5865 5864 5864 5864 5865 5865 5865 5864 5863 5862 5861 5862 5861 5860 5859 5859 5859 5860 5859 5858 5857 5856 5856 5855 5855 5855 5854 5854 5853 5853 5853 5853 5853 5852 5852 5852 5851 5851 5851 5850 5850 5849 5848 5848 5847 5847 5846 5845 5845 5845 5844 5844 5843 5843 5843 5842 5842 5841 5841
5870 5870 5870 5870 5870 5871 5871 5871 5872 5871 5871 5870 5869 5869 5868 5868 5867 5867 5867 5867 5867 5866 5866 5866 5866 5865 5864 5864 5863 5863 5864 5865 5864 5863 5862 5862 5861 5861 5861 5860 5859 5858 5858 5858 5859 5858 5856 5855 5855 5855 5854 5854 5854 5853 5853 5853 5852 5852 5852 5852 5851 5851 5851 5851 5850 5850 5849 5849 5848 5848 5847 5847 5846 5845 5845 5845 5844 5843 5843 5842 5842 5842 5841 5841 5841
5868 5868 5869 5869 5869 5869 5870 5870 5870 5870 5869 5869 5868 5868 5867 5867 5866 5866 5866 5866 5866 5866 5865 5865 5865 5864 5863 5863 5862 5862 5863 5863 5864 5863 5862 5861 5860 5860 5860 5859 5858 5857 5856 5857 5857 5857 5856 5855 5854 5854 5854 5853 5853 5853 5852 5852 5852 5851 5851 5851 5851 5850 5850 5850 5850 5849 5849 5848 5848 5847 5847 5846 5846 5845 5845 5844 5844 5843 5843 5842 5842 5841 5841 5841 5840
5867 5867 5867 5867 5867 5868 5869 5869 5869 5868 5868 5867 5867 5867 5866 5866 5866 5865 5865 5865 5865 5864 5864 5864 5863 5863 5862 5861 5861 5860 5860 5861 5861 5862 5862 5860 5859 5858 5858 5858 5857 5856 5855 5855 5856 5856 5855 5854 5853 5853 5853 5852 5852 5852 5852 5852 5851 5851 5851 5851 5850 5850 5850 5849 5849 5848 5848 5848 5847 5847 5846 5845 5845 5844 5844 5844 5844 5843 5842 5842 5841 5841 5840 5840 5840
5865 5865 5865 5865 5866 5867 5867 5867 5867 5867 5866 5866 5866 5866 5866 5866 5865 5865 5864 5863 5863 5863 5863 5862 5861 5861 5860 5859 5859 5859 5858 5858 5858 5860 5860 5859 5858 5857 5857 5856 5856 5855 5854 5854 5854 5854 5854 5853 5853 5852 5852 5851 5851 5851 5851 5851 5851 5850 5850 5850 5850 5849 5849 5849 5848 5848 5847 5847 5846 5846 5845 5844 5844 5844 5843 5843 5843 5843 5842 5842 5841 5841 5840 5839 5839
5864 5864 5864 5864 5865 5865 5865 5865 5865 5865 5865 5865 5865 5865 5865 5864 5864 5863 5862 5861 5861 5861 5860 5860 5859 5858 5858 5858 5857 5857 5856 5856 5856 5856 5857 5858 5857 5856 5855 5855 5855 5854 5853 5852 5852 5852 5852 5853 5852 5851 5851 5850 5850 5850 5850 5850 5850 5849 5849 5849 5849 5849 5848 5848 5848 5847 5847 5846 5846 5845 5844 5843 5843 5843 5843 5842 5842 5842 5841 5841 5841 5840 5840 5839 5839
5862 5862 5862 5863 5863 5864 5864 5864 5864 5864 5863 5864 5864 5864 5863 5863 5862 5861 5860 5859 5858 5858 5858 5857 5857 5856 5856 5856 5855 5855 5854 5854 5853 5852 5853 5855 5855 5854 5853 5853 5853 5853 5852 5851 5851 5850 5850 5851 5851 5850 5850 5849 5849 5849 5849 5849 5849 5849 5848 5848 5848 5848 5848 5847 5846 5846 5845 5845 5845 5844 5844 5843 5842 5842 5842 5841 5841 5841 5841 5840 5840 5839 5839 5838 5838
5861 5861 5861 5862 5862 5863 5863 5863 5862 5862 5862 5862 5862 5862 5861 5860 5859 5858 5857 5857 5856 5856 5856 5855 5855 5854 5854 5853 5853 5852 5852 5852 5851 5849 5849 5851 5852 5852 5851 5850 5851 5851 5851 5850 5849 5849 5849 5849 5849 5849 5849 5848 5847 5848 5848 5848 5848 5848 5848 5847 5847 5847 5847 5846 5845 5845 5845 5844 5844 5843 5843 5842 5841 5841 5840 5840 5840 5840 5840 5840 5839 5839 5838 5838 5838
5859 5859 5860 5860 5861 5861 5861 5861 5861 5861 5861 5861 5860 5860 5859 5858 5857 5856 5855 5854 5854 5854 5853 5853 5852 5852 5851 5851 5850 5850 5850 5849 5849 5848 5847 5848 5849 5849 5848 5848 5848 5849 5849 5848 5848 5848 5848 5848 5848 5847 5847 5846 5846 5846 5847 5847 5847 5847 5846 5846 5846 5846 5846 5845 5844 5844 5844 5844 5843 5843 5842 5841 5840 5840 5839 5839 5839 5839 5839 5839 5838 5838 5837 5837 5837
5858 5858 5858 5859 5859 5859 5859 5859 5859 5859 5859 5859 5858 5857 5856 5855 5854 5853 5853 5852 5852 5851 5851 5850 5850 5849 5849 5848 5848 5848 5848 5847 5846 5846 5845 5844 5845 5845 5845 5845 5845 5846 5846 5846 5846 5845 5846 5847 5846 5846 5846 5845 5845 5845 5845 5846 5846 5846 5845 5845 5845 5845 5845 5844 5844 5843 5843 5843 5843 5842 5841 5841 5840 5839 5838 5838 5838 5837 5837 5837 5837 5837 5837 5836 5836
5856 5856 5857 5857 5857 5857 5857 5857 5857 5857 5857 5856 5855 5855 5854 5853 5852 5851 5850 5850 5849 5849 5848 5848 5847 5847 5846 5846 5845 5846 5845 5844 5843 5843 5842 5842 5842 5842 5842 5843 5843 5843 5844 5844 5843 5843 5844 5845 5845 5844 5844 5844 5843 5843 5844 5844 5844 5844 5844 5844 5844 5844 5844 5843 5843 5843 5843 5842 5842 5842 5841 5840 5839 5838 5838 5837 5836 5836 5836 5836 5836 5836 5836 5835 5835
5854 5855 5855 5855 5855 5855 5855 5855 5855 5855 5854 5854 5854 5853 5852 5851 5850 5849 5848 5848 5847 5847 5846 5845 5845 5845 5844 5843 5843 5843 5843 5842 5841 5840 5840 5839 5839 5839 5839 5840 5840 5841 5841 5841 5841 5841 5841 5842 5843 5843 5843 5842 5842 5842 5842 5843 5843 5843 5843 5843 5843 5843 5842 5842 5842 5842 5842 5841 5841 5841 5840 5839 5839 5838 5837 5836 5836 5835 5835 5835 5835 5835 5835 5835 5834
5853 5853 5853 5853 5853 5853 5853 5853 5853 5853 5852 5852 5852 5851 5850 5849 5848 5847 5846 5846 5846 5845 5844 5843 5843 5843 5842 5841 5841 5840 5840 5839 5838 5838 5838 5837 5836 5836 5836 5837 5837 5838 5839 5839 5838 5838 5839 5840 5840 5841 5841 5841 5841 5840 5840 5841 5841 5841 5841 5841 5842 5841 5841 5841 5841 5840 5840 5840 5840 5840 5839 5839 5838 5837 5836 5835 5835 5834 5834 5834 5834 5834 5834 5834 5833
5851 5851 5851 5851 5851 5851 5851 5851 5851 5851 5851 5850 5850 5848 5847 5847 5846 5846 5845 5844 5844 5844 5843 5842 5841 5841 5840 5839 5838 5837 5837 5836 5836 5835 5835 5835 5834 5833 5834 5834 5834 5835 5836 5836 5836 5836 5837 5838 5838 5839 5839 5839 5839 5838 5838 5839 5839 5840 5840 5840 5840 5840 5840 5840 5840 5839 5839 5839 5839 5839 5838 5838 5838 5837 5836 5835 5834 5834 5833 5833 5833 5833 5833 5832 5832
5849 5849 5849 5849 5849 5849 5849 5849 5849 5849 5848 5848 5847 5846 5845 5845 5844 5844 5844 5843 5843 5842 5841 5840 5840 5839 5838 5837 5836 5835 5834 5834 5834 5834 5833 5833 5832 5831 5831 5831 5832 5832 5833 5834 5834 5834 5835 5836 5836 5837 5837 5837 5837 5837 5837 5837 5838 5838 5838 5839 5839 5839 5838 5838 5838 5838 5838 5838 5838 5838 5838 5837 5837 5837 5836 5835 5834 5833 5833 5833 5833 5832 5832 5831 5831
5847 5847 5847 5847 5847 5847 5847 5847 5847 5847 5846 5846 5845 5844 5844 5843 5843 5843 5842 5841 5841 5840 5839 5838 5838 5837 5836 5835 5834 5834 5833 5832 5832 5832 5831 5830 5829 5828 5828 5829 5829 5829 5830 5831 5831 5832 5833 5834 5835 5835 5835 5835 5835 5835 5835 5836 5836 5837 5837 5838 5838 5838 5838 5838 5838 5838 5838 5837 5837 5837 5837 5837 5837 5836 5836 5835 5834 5833 5833 5832 5832 5832 5831 5831 5830
5844 5845 5845 5845 5845 5845 5845 5845 5845 5844 5844 5844 5844 5843 5842 5841 5841 5840 5840 5839 5838 5837 5836 5836 5836 5835 5834 5833 5832 5832 5832 5831 5830 5829 5829 5828 5827 5827 5826 5826 5826 5827 5828 5828 5829 5829 5831 5832 5832 5832 5833 5833 5833 5834 5834 5834 5835 5835 5836 5837 5837 5837 5837 5837 5837 5837 5837 5836 5836 5836 5836 5836 5836 5836 5835 5834 5833 5833 5832 5832 5832 5831 5831 5830 5830
5842 5843 5843 5843 5843 5843 5843 5843 5843 5842 5842 5842 5842 5841 5840 5839 5839 5838 5838 5837 5836 5835 5833 5833 5833 5833 5832 5831 5830 5830 5830 5829 5828 5827 5826 5825 5825 5825 5824 5823 5824 5824 5825 5825 5826 5827 5828 5829 5830 5830 5831 5831 5831 5832 5832 5832 5833 5834 5835 5835 5836 5836 5836 5836 5836 5836 5836 5835 5835 5835 5835 5835 5835 5835 5834 5834 5833 5832 5832 5832 5831 5831 5830 5830 5829
5840 5840 5840 5841 5841 5841 5841 5841 5841 5840 5840 5839 5839 5838 5837 5837 5836 5836 5835 5834 5833 5833 5832 5832 5831 5830 5829 5828 5827 5827 5827 5826 5825 5824 5823 5823 5822 5823 5822 5821 5822 5822 5822 5822 5823 5824 5825 5826 5827 5828 5829 5830 5830 5830 5830 5830 5831 5833 5833 5834 5835 5835 5835 5835 5835 5835 5834 5834 5834 5834 5834 5834 5833 5834 5834 5833 5832 5832 5832 5832 5831 5831 5830 5830 5829
5838 5838 5838 5839 5839 5839 5839 5838 5838 5838 5837 5837 5836 5836 5835 5835 5834 5834 5833 5832 5831 5831 5831 5830 5829 5828 5826 5825 5824 5825 5825 5824 5823 5821 5821 5820 5820 5820 5820 5819 5819 5819 5820 5820 5820 5821 5822 5824 5824 5826 5827 5827 5828 5828 5828 5829 5830 5831 5832 5832 5833 5834 5834 5834 5834 5833 5833 5833 5833 5833 5833 5832 5832 5833 5833 5832 5832 5832 5832 5831 5831 5830 5830 5830 5829
5836 5836 5837 5837 5837 5837 5837 5836 5836 5836 5835 5835 5834 5834 5833 5833 5832 5831 5831 5830 5829 5829 5828 5827 5827 5825 5823 5822 5822 5822 5822 5821 5820 5819 5818 5817 5817 5817 5817 5816 5816 5816 5817 5818 5818 5819 5820 5821 5822 5823 5824 5825 5826 5826 5827 5827 5828 5829 5830 5831 5831 5832 5832 5832 5832 5832 5832 5832 5832 5832 5832 5831 5831 5831 5831 5831 5831 5831 5831 5831 5830 5830 5830 5829 5829
5834 5835 5835 5835 5835 5835 5834 5834 5834 5833 5833 5833 5832 5832 5831 5830 5830 5829 5828 5827 5827 5826 5826 5825 5824 5823 5821 5820 5820 5820 5819 5818 5817 5817 5816 5814 5814 5814 5813 5814 5814 5814 5815 5815 5816 5817 5817 5818 5820 5821 5822 5823 5824 5825 5825 5825 5826 5827 5828 5829 5830 5830 5831 5831 5831 5831 5831 5831 5831 5831 5831 5830 5830 5830 5830 5830 5830 5831 5831 5830 5830 5829 5829 5829 5828
5832 5833 5833 5833 5833 5833 5832 5831 5831 5830 5830 5829 5829 5829 5828 5828 5827 5826 5826 5825 5825 5824 5823 5822 5821 5820 5820 5819 5817 5817 5816 5815 5814 5814 5813 5811 5810 5810 5810 5811 5812 5812 5813 5813 5813 5815 5816 5817 5818 5819 5819 5821 5822 5822 5823 5823 5825 5826 5826 5827 5828 5829 5829 5829 5829 5830 5830 5829 5829 5829 5829 5829 5829 5829 5829 5829 5830 5830 5830 5829 5829 5829 5828 5828 5827
5831 5831 5831 5831 5831 5830 5830 5829 5828 5827 5827 5826 5826 5826 5826 5825 5825 5824 5823 5823 5822 5821 5821 5820 5819 5818 5818 5817 5815 5814 5813 5812 5811 5811 5810 5809 5807 5807 5807 5807 5808 5809 5809 5810 5811 5812 5814 5815 5815 5816 5817 5818 5819 5820 5821 5821 5822 5824 5825 5825 5826 5827 5827 5828 5828 5828 5828 5828 5828 5828 5828 5828 5828 5828 5828 5829 5829 5829 5829 5829 5828 5828 5827 5827 5826
5829 5829 5829 5829 5829 5828 5827 5826 5825 5825 5824 5824 5824 5824 5823 5822 5822 5821 5821 5820 5819 5818 5818 5817 5816 5815 5815 5814 5813 5812 5811 5810 5809 5808 5808 5807 5805 5804 5803 5803 5804 5804 5805 5807 5809 5810 5812 5813 5813 5814 5815 5816 5817 5818 5819 5820 5821 5822 5823 5824 5824 5825 5825 5826 5826 5826 5826 5826 5827 5827 5827 5827 5826 5827 5827 5827 5828 5828 5828 5828 5828 5827 5826 5826 5826
5827 5827 5827 5827 5826 5826 5825 5824 5823 5822 5822 5821 5821 5821 5820 5820 5819 5818 5817 5817 5816 5815 5815 5814 5814 5813 5812 5811 5811 5810 5809 5807 5806 5805 5805 5804 5803 5802 5801 5800 5800 5800 5802 5804 5806 5808 5809 5810 5811 5812 5812 5813 5815 5816 5817 5818 5819 5821 5821 5822 5822 5823 5823 5824 5824 5824 5824 5825 5825 5825 5826 5826 5825 5825 5826 5826 5827 5827 5827 5827 5827 5826 5825 5824 5824
5825 5825 5825 5825 5824 5823 5822 5821 5820 5820 5819 5819 5819 5818 5818 5817 5816 5815 5814 5814 5813 5812 5812 5811 5811 5810 5810 5809 5808 5807 5806 5805 5803 5802 5802 5802 5801 5800 5799 5798 5798 5798 5800 5801 5803 5805 5807 5808 5809 5809 5810 5811 5812 5814 5815 5816 5817 5818 5819 5820 5820 5820 5821 5821 5822 5822 5823 5823 5823 5824 5824 5825 5824 5824 5825 5825 5825 5825 5826 5826 5826 5826 5825 5824 5823
5823 5823 5823 5822 5822 5821 5820 5819 5818 5817 5817 5816 5816 5815 5815 5814 5813 5812 5811 5810 5810 5809 5808 5808 5807 5807 5807 5806 5805 5805 5804 5803 5801 5800 5799 5799 5799 5798 5797 5796 5796 5797 5797 5799 5800 5802 5804 5805 5807 5807 5808 5809 5810 5811 5812 5814 5815 5816 5817 5817 5818 5818 5819 5819 5820 5820 5821 5821 5822 5823 5823 5823 5823 5823 5823 5824 5824 5824 5824 5824 5824 5824 5824 5824 5823
5821 5821 5820 5820 5819 5819 5818 5817 5816 5816 5815 5814 5814 5813 5812 5812 5811 5810 5809 5808 5808 5807 5806 5805 5804 5804 5804 5804 5803 5802 5801 5800 5799 5797 5797 5796 5796 5796 5795 5794 5794 5795 5795 5796 5798 5800 5801 5803 5805 5805 5806 5806 5808 5809 5811 5812 5813 5814 5815 5815 5815 5816 5817 5817 5818 5819 5819 5820 5820 5821 5822 5822 5822 5822 5822 5822 5822 5822 5822 5822 5823 5823 5823 5823 5823
5818 5818 5818 5818 5817 5816 5815 5814 5814 5814 5813 5813 5812 5811 5810 5809 5808 5807 5807 5806 5805 5805 5804 5803 5802 5801 5801 5801 5801 5800 5799 5798 5796 5795 5794 5794 5794 5794 5793 5792 5792 5793 5793 5794 5796 5797 5799 5801 5802 5803 5803 5804 5806 5807 5809 5810 5811 5812 5812 5814 5814 5814 5815 5815 5816 5817 5817 5818 5819 5819 5820 5820 5820 5820 5821 5821 5820 5820 5820 5821 5821 5821 5822 5822 5822
5816 5816 5816 5815 5815 5814 5812 5812 5811 5811 5811 5811 5810 5809 5807 5806 5805 5804 5803 5803 5802 5802 5801 5801 5800 5799 5799 5799 5799 5798 5797 5796 5794 5792 5792 5791 5791 5791 5791 5790 5790 5790 5792 5793 5794 5795 5797 5798 5799 5800 5801 5802 5803 5805 5806 5808 5809 5809 5810 5812 5812 5813 5814 5814 5815 5816 5816 5816 5817 5818 5819 5819 5818 5818 5819 5819 5819 5818 5819 5819 5819 5820 5820 5820 5820
5814 5814 5814 5813 5812 5811 5810 5810 5809 5809 5809 5808 5807 5806 5805 5803 5801 5800 5800 5799 5798 5797 5797 5797 5796 5796 5796 5796 5796 5796 5795 5794 5792 5791 5789 5789 5789 5789 5789 5789 5788 5788 5789 5790 5792 5793 5794 5795 5796 5797 5798 5800 5801 5802 5804 5805 5806 5807 5808 5810 5811 5812 5813 5813 5814 5815 5814 5814 5815 5816 5817 5816 5817 5817 5817 5817 5817 5817 5817 5817 5817 5818 5818 5818 5818
5812 5812 5812 5811 5810 5809 5808 5808 5807 5807 5806 5805 5804 5803 5801 5800 5798 5797 5797 5796 5795 5794 5794 5793 5792 5792 5792 5792 5793 5793 5793 5792 5791 5789 5788 5787 5787 5787 5788 5788 5787 5786 5787 5788 5789 5790 5791 5793 5794 5795 5796 5797 5798 5800 5801 5803 5804 5806 5807 5808 5809 5810 5811 5811 5812 5813 5813 5813 5813 5813 5814 5814 5814 5814 5814 5815 5815 5815 5815 5815 5816 5816 5815 5815 5816
5810 5810 5810 5809 5808 5807 5806 5806 5805 5804 5803 5802 5801 5800 5799 5797 5796 5795 5794 5793 5793 5792 5791 5790 5790 5789 5789 5789 5789 5790 5790 5790 5789 5787 5786 5785 5785 5785 5785 5786 5785 5784 5784 5785 5786 5788 5789 5790 5791 5793 5794 5795 5796 5798 5799 5801 5803 5804 5806 5806 5807 5808 5809 5810 5810 5810 5811 5811 5811 5811 5812 5812 5812 5812 5813 5813 5813 5813 5813 5813 5813 5813 5813 5813 5814
5808 5808 5808 5807 5806 5805 5804 5803 5802 5801 5800 5800 5799 5797 5796 5795 5793 5793 5792 5791 5790 5790 5789 5788 5787 5786 5786 5786 5786 5786 5785 5786 5786 5786 5784 5784 5784 5783 5782 5783 5782 5782 5782 5782 5783 5786 5787 5788 5789 5791 5792 5793 5794 5796 5797 5799 5801 5803 5804 5804 5805 5806 5807 5807 5807 5808 5808 5809 5809 5809 5810 5810 5810 5810 5811 5811 5811 5811 5811 5811 5811 5811 5811 5811 5811